This is the latest recevied weather packets stored in our database for station/object 9W2SSS-1. If no packets are shown the sender has not sent any weather packets the latest 10 day(s).
| Time | Temp. | Humidity | Pressure | Rain* | Wind** | Luminosity | Snow |
|---|---|---|---|---|---|---|---|
| 1777467789 | 31.11° C | 58% | 1008.8 hPa | - | - | - | - |
| 1777466589 | 31.11° C | 57% | 1008.7 hPa | - | - | - | - |
| 1777465389 | 30.56° C | 51% | 1008.6 hPa | - | - | - | - |
| 1777464189 | 31.11° C | 54% | 1007.9 hPa | - | - | - | - |
| 1777462989 | 31.67° C | 54% | 1007.2 hPa | - | - | - | - |
| 1777461788 | 32.22° C | 54% | 1006.8 hPa | - | - | - | - |
| 1777460588 | 32.78° C | 52% | 1006.6 hPa | - | - | - | - |
| 1777456998 | 33.33° C | 53% | 1006.3 hPa | - | - | - | - |
| 1777454598 | 33.33° C | 50% | 1006.4 hPa | - | - | - | - |
| 1777453397 | 33.89° C | 52% | 1005.7 hPa | - | - | - | - |
| 1777452197 | 34.44° C | 51% | 1005.4 hPa | - | - | - | - |
| 1777450996 | 35° C | 50% | 1005.1 hPa | - | - | - | - |
| 1777449795 | 35.56° C | 49% | 1005.3 hPa | - | - | - | - |
| 1777447395 | 35.56° C | 47% | 1005.7 hPa | - | - | - | - |
| 1777446195 | 35.56° C | 46% | 1006.1 hPa | - | - | - | - |
| 1777443794 | 35.56° C | 46% | 1006.8 hPa | - | - | - | - |
| 1777442593 | 35.56° C | 45% | 1007.1 hPa | - | - | - | - |
| 1777441393 | 35.56° C | 47% | 1007.6 hPa | - | - | - | - |
| 1777440192 | 35.56° C | 47% | 1008 hPa | - | - | - | - |
| 1777438992 | 35.56° C | 48% | 1008.3 hPa | - | - | - | - |
| 1777437792 | 36.11° C | 47% | 1008.7 hPa | - | - | - | - |
| 1777436591 | 37.22° C | 45% | 1009.1 hPa | - | - | - | - |
| 1777435391 | 38.33° C | 44% | 1009.4 hPa | - | - | - | - |
| 1777434191 | 38.89° C | 43% | 1009.4 hPa | - | - | - | - |
| 1777432990 | 38.89° C | 42% | 1009.7 hPa | - | - | - | - |
* Rain since midnight (hover to see other rain measurements)
** Current wind speed in m/s (hover to see current wind gust speed)